083  
ASUS44 KHUN 250110  
RWRHUN  
 
WEATHER ROUNDUP FOR THE TENNESSEE VALLEY  
NATIONAL WEATHER SERVICE HUNTSVILLE AL  
800 PM CDT MON SEP 24 2018  
 
ALZ001>004-250200-  
NORTHWEST ALABAMA  
 
CITY SKY/WX TMP DP RH WIND PRES REMARKS
 
COURTLAND HCN N/A 75 N/A N/A CALM N/A  
RUSSELLVILLE N/A 73 N/A N/A MISG N/A  
SHOALS AIRPORT FAIR 75 74 96 CALM 30.01R  
SHOALS TVA RES N/A 75 N/A N/A MISG N/A  

 
 
ALZ005>007-016-250200-  
NORTH CENTRAL ALABAMA  
 
CITY SKY/WX TMP DP RH WIND PRES REMARKS
 
CULLMAN AG STN N/A 72 N/A N/A S5 N/A  
DECATUR AP LGT RAIN 73 72 96 S10 30.03F  
HUNTSVILLE AP TSTM 75 72 90 S9 30.03R  
MERIDIANVILLE CLOUDY 74 72 95 SE6 30.05S  
REDSTONE ARSN CLOUDY 74 72 95 S7 30.03R  
VINEMONT AP CLOUDY 71 70 95 S8 30.07S  

 
 
ALZ008>010-250200-  
NORTHEAST ALABAMA  
 
CITY SKY/WX TMP DP RH WIND PRES REMARKS
 
ALBERTVILLE LGT RAIN 70 70 100 S3 30.08R  
FORT PAYNE HVY RAIN 72 68 88 SW15G22 30.09R  
SCOTTSBORO AP HVY RAIN 73 73 100 VRB5 30.07R  
SCOTTSBORO HCN N/A 73 N/A N/A MISG N/A  
VALLEY HEAD N/A 73 N/A N/A MISG N/A  

 
 
TNZ076-096-097-250200-  
SOUTHEASTERN MIDDLE TENNESSEE  
 
CITY SKY/WX TMP DP RH WIND PRES REMARKS
 
TULLAHOMA MOCLDY 72 70 94 SE7 30.06R  
WINCHESTER CLOUDY 73 72 94 SE7 30.07R  

 
   
..SURROUNDING SITES
 
 
 
CITY SKY/WX TMP DP RH WIND PRES REMARKS
 
ATLANTA MOCLDY 78 68 71 E16G22 30.11R  
ANNISTON LGT RAIN 71 69 93 CALM 30.08R  
BIRMINGHAM CLOUDY 73 71 93 SE6 30.06F  
CHATTANOOGA LGT RAIN 71 68 90 NE3 30.10R FOG  
CORINTH FAIR 73 70 88 SE5 29.96R  
DALTON LGT RAIN 73 70 88 SE5 30.10R  
GADSDEN RAIN 71 71 100 S3 30.09S  
GOLDEN TRNGL FAIR 77 73 87 SE8 29.98R  
JACKSON TN MOCLDY 76 73 91 SE3 29.95S  
MEMPHIS FAIR 78 76 93 SE6 29.92R  
NASHVILLE MOCLDY 72 70 93 SE8 30.03S  
OXFORD MS FAIR 77 72 83 SE8 29.95S  
ROME CLOUDY 77 71 82 E6 30.06R  
SAVANNAH MOCLDY 73 72 94 S8 29.97S  
SELMER PTCLDY 75 70 83 S9 29.97R  
TUPELO FAIR 75 72 90 E6 29.97R  
TUSCALOOSA FAIR 77 72 84 SE7 30.01R  

 
   
..GULF COAST WEATHER
 
 
 
CITY SKY/WX TMP DP RH WIND PRES REMARKS
 
GULFPORT MOCLDY 82 76 81 CALM 29.94R  
PASCAGOULA FAIR 79 76 90 CALM 29.96R  
MOBILE FAIR 80 76 87 SE6 29.98R  
GULF SHORES FAIR 77 75 93 E3 29.99R  
PENSACOLA MOCLDY 79 76 90 E8 29.99R  
DESTIN LGT RAIN 77 75 93 CALM 30.02S  
PANAMA CITY MOCLDY 79 76 90 E5 30.02R  
APPALACHICOLA FAIR 76 76 100 CALM 30.02S  

 
 
 
 
CLICK HERE TO GO TO PREVIOUS BULLETINS.

The Nexlab AL Page
The Nexlab TN Page Main Text Page